| time (UTC) | temp F | wind direction | speed knots | gust knots | rain 1hr in | rain 24hr in | rain mn in | humidity % | barometer mb |
| 20260506184534 | 85 | 109 | 3.5 | 7.8 | 0.00 | 0.00 | 0.00 | 64 | 1009.4 |
| 20260506183029 | 83 | 103 | 2.6 | 7.8 | 0.00 | 0.00 | 0.00 | 65 | 1009.7 |
| 20260506181528 | 83 | 65 | 0.9 | 3.5 | 0.00 | 0.00 | 0.00 | 65 | 1009.9 |
| 20260506180027 | 83 | 61 | 0.9 | 4.3 | 0.00 | 0.00 | 0.00 | 65 | 1010.0 |
| 20260506174525 | 82 | 117 | 0.9 | 5.2 | 0.00 | 0.00 | 0.00 | 65 | 1010.1 |
| 20260506173021 | 81 | 114 | 2.6 | 5.2 | 0.00 | 0.00 | 0.00 | 66 | 1010.2 |
| 20260506171522 | 81 | 84 | 1.7 | 5.2 | 0.00 | 0.00 | 0.00 | 66 | 1010.4 |
| 20260506170017 | 80 | 69 | 1.7 | 5.2 | 0.00 | 0.00 | 0.00 | 66 | 1010.7 |
| 20260506164516 | 80 | 68 | 1.7 | 4.3 | 0.00 | 0.00 | 0.00 | 66 | 1011.0 |
| 20260506163014 | 80 | 104 | 0.9 | 3.5 | 0.00 | 0.00 | 0.00 | 66 | 1010.8 |
| 20260506161511 | 80 | 115 | 1.7 | 5.2 | 0.00 | 0.00 | 0.00 | 67 | 1010.6 |
| 20260506160011 | 79 | 134 | 1.7 | 7.0 | 0.00 | 0.00 | 0.00 | 67 | 1010.1 |
| 20260506154507 | 79 | 113 | 3.5 | 6.1 | 0.00 | 0.00 | 0.00 | 67 | 1009.4 |
| 20260506153008 | 79 | 119 | 1.7 | 3.5 | 0.00 | 0.00 | 0.00 | 68 | 1009.5 |
| 20260506151501 | 78 | 99 | 1.7 | 6.1 | 0.00 | 0.00 | 0.00 | 70 | 1009.7 |
| 20260506150100 | 78 | 123 | 3.5 | 6.1 | 0.00 | 0.00 | 0.00 | 74 | 1009.3 |
| 20260506144606 | 77 | 150 | 3.5 | 6.1 | 0.00 | 0.00 | 0.00 | 76 | 1009.2 |
| 20260506143053 | 76 | 144 | 3.5 | 9.6 | 0.00 | 0.00 | 0.00 | 77 | 1009.1 |
| 20260506141550 | 76 | 142 | 5.2 | 7.8 | 0.00 | 0.00 | 0.00 | 77 | 1008.9 |
| 20260506140048 | 76 | 130 | 4.3 | 7.8 | 0.00 | 0.00 | 0.00 | 77 | 1008.5 |
| 20260506134548 | 75 | 116 | 3.5 | 7.8 | 0.00 | 0.00 | 0.00 | 77 | 1008.7 |
| 20260506133049 | 75 | 150 | 2.6 | 6.1 | 0.00 | 0.00 | 0.00 | 77 | 1008.7 |
| 20260506131546 | 75 | 136 | 2.6 | 6.1 | 0.00 | 0.00 | 0.00 | 77 | 1008.6 |
| 20260506130049 | 75 | 110 | 2.6 | 6.1 | 0.00 | 0.00 | 0.00 | 77 | 1008.7 |
| 20260506124544 | 74 | 132 | 1.7 | 4.3 | 0.00 | 0.00 | 0.00 | 76 | 1008.6 |
| 20260506123043 | 74 | 130 | 1.7 | 2.6 | 0.00 | 0.00 | 0.00 | 76 | 1008.5 |
| 20260506121542 | 74 | 130 | 0.9 | 4.3 | 0.00 | 0.00 | 0.00 | 76 | 1008.5 |
| 20260506120043 | 74 | 148 | 0.0 | 1.7 | 0.00 | 0.00 | 0.00 | 76 | 1008.5 |
| 20260506114542 | 74 | 148 | 0.0 | 4.3 | 0.00 | 0.00 | 0.00 | 76 | 1008.4 |
| 20260506113042 | 74 | 151 | 1.7 | 6.1 | 0.00 | 0.00 | 0.00 | 76 | 1008.2 |
| 20260506111540 | 74 | 150 | 3.5 | 7.8 | 0.00 | 0.00 | 0.00 | 75 | 1008.0 |
| 20260506110042 | 74 | 139 | 2.6 | 7.0 | 0.00 | 0.00 | 0.00 | 75 | 1008.2 |
| 20260506104546 | 74 | 150 | 1.7 | 5.2 | 0.00 | 0.00 | 0.00 | 75 | 1008.0 |
| 20260506103040 | 74 | 167 | 3.5 | 5.2 | 0.00 | 0.00 | 0.00 | 74 | 1007.8 |
| 20260506101539 | 74 | 163 | 2.6 | 5.2 | 0.00 | 0.00 | 0.00 | 74 | 1007.8 |
| 20260506100038 | 74 | 169 | 1.7 | 4.3 | 0.00 | 0.00 | 0.00 | 73 | 1007.7 |
| 20260506094537 | 74 | 167 | 3.5 | 4.3 | 0.00 | 0.00 | 0.00 | 73 | 1007.7 |
| 20260506093040 | 74 | 170 | 1.7 | 3.5 | 0.00 | 0.00 | 0.00 | 73 | 1007.8 |
| 20260506091535 | 74 | 176 | 2.6 | 4.3 | 0.00 | 0.00 | 0.00 | 73 | 1007.7 |
| 20260506090033 | 74 | 173 | 2.6 | 5.2 | 0.00 | 0.00 | 0.00 | 72 | 1007.7 |
| 20260506084536 | 74 | 167 | 3.5 | 7.0 | 0.00 | 0.00 | 0.00 | 72 | 1007.6 |
| 20260506083032 | 74 | 161 | 3.5 | 7.8 | 0.00 | 0.00 | 0.00 | 72 | 1007.6 |
| 20260506081529 | 74 | 168 | 4.3 | 7.0 | 0.00 | 0.00 | 0.00 | 71 | 1007.4 |
| 20260506073025 | 75 | 153 | 4.3 | 8.7 | 0.00 | 0.00 | 0.00 | 71 | 1008.1 |
| 20260506071523 | 75 | 164 | 4.3 | 8.7 | 0.00 | 0.00 | 0.00 | 71 | 1008.3 |
| 20260506061502 | 75 | 163 | 6.1 | 10.4 | 0.00 | 0.00 | 0.00 | 71 | 1008.4 |
| 20260506044553 | 76 | 175 | 6.1 | 9.6 | 0.00 | 0.00 | 0.00 | 70 | 1008.6 |
| 20260506043050 | 76 | 160 | 6.1 | 11.3 | 0.00 | 0.00 | 0.00 | 70 | 1008.5 |
| 20260506041554 | 76 | 165 | 6.1 | 9.6 | 0.00 | 0.00 | 0.00 | 70 | 1008.5 |
| 20260506040049 | 76 | 148 | 2.6 | 7.0 | 0.00 | 0.00 | 0.00 | 70 | 1008.6 |
| 20260506034553 | 76 | 147 | 1.7 | 6.1 | 0.00 | 0.00 | 0.00 | 70 | 1008.7 |
| 20260506033056 | 76 | 132 | 4.3 | 7.8 | 0.00 | 0.00 | 0.00 | 70 | 1008.4 |
| 20260506031547 | 76 | 142 | 2.6 | 6.1 | 0.00 | 0.00 | 0.00 | 70 | 1008.3 |
| 20260506030057 | 77 | 140 | 2.6 | 8.7 | 0.00 | 0.00 | 0.00 | 70 | 1008.0 |
| 20260506024557 | 77 | 143 | 3.5 | 7.0 | 0.00 | 0.00 | 0.00 | 70 | 1007.7 |
| 20260506023046 | 77 | 146 | 2.6 | 5.2 | 0.00 | 0.00 | 0.00 | 70 | 1007.6 |
| 20260506021555 | 77 | 120 | 1.7 | 4.3 | 0.00 | 0.00 | 0.00 | 70 | 1007.5 |
| 20260506020044 | 77 | 149 | 3.5 | 8.7 | 0.00 | 0.00 | 0.00 | 70 | 1007.3 |
| 20260506014544 | 78 | 157 | 2.6 | 8.7 | 0.00 | 0.00 | 0.00 | 70 | 1007.2 |
| 20260506013046 | 78 | 142 | 3.5 | 9.6 | 0.00 | 0.00 | 0.00 | 69 | 1006.8 |
| 20260506011607 | 79 | 129 | 6.1 | 13.0 | 0.00 | 0.00 | 0.00 | 69 | 1006.6 |
| 20260506010042 | 79 | 135 | 7.8 | 14.8 | 0.00 | 0.00 | 0.00 | 68 | 1006.4 |
| 20260506004545 | 80 | 144 | 7.8 | 12.2 | 0.00 | 0.00 | 0.00 | 67 | 1006.4 |
| 20260506003043 | 80 | 137 | 7.8 | 13.9 | 0.00 | 0.00 | 0.00 | 67 | 1006.2 |
| 20260506001542 | 81 | 155 | 5.2 | 10.4 | 0.00 | 0.00 | 0.00 | 66 | 1006.1 |
| 20260506000046 | 81 | 134 | 7.8 | 13.0 | 0.00 | 0.00 | 0.00 | 66 | 1006.0 |
| 20260505234539 | 82 | 145 | 7.8 | 14.8 | 0.00 | 0.00 | 0.00 | 65 | 1005.9 |
| 20260505233037 | 82 | 159 | 8.7 | 18.2 | 0.00 | 0.00 | 0.00 | 64 | 1005.8 |
| 20260505231541 | 83 | 138 | 8.7 | 14.8 | 0.00 | 0.00 | 0.00 | 63 | 1005.8 |
| 20260505230035 | 84 | 140 | 7.8 | 14.8 | 0.00 | 0.00 | 0.00 | 62 | 1005.7 |
| 20260505224534 | 85 | 145 | 8.7 | 14.8 | 0.00 | 0.00 | 0.00 | 61 | 1005.7 |
| 20260505223035 | 85 | 140 | 10.4 | 15.6 | 0.00 | 0.00 | 0.00 | 60 | 1005.7 |
| 20260505221534 | 85 | 151 | 6.1 | 9.6 | 0.00 | 0.00 | 0.00 | 60 | 1005.7 |
| 20260505220046 | 85 | 161 | 10.4 | 15.6 | 0.00 | 0.00 | 0.00 | 60 | 1006.0 |
| 20260505214533 | 85 | 360 | 7.8 | 14.8 | 0.00 | 0.00 | 0.00 | 59 | 1006.0 |
| 20260505213031 | 86 | 360 | 9.6 | 13.0 | 0.00 | 0.00 | 0.00 | 59 | 1006.2 |
| 20260505211524 | 86 | 155 | 7.8 | 12.2 | 0.00 | 0.00 | 0.00 | 59 | 1006.5 |
| 20260505210023 | 86 | 96 | 7.0 | 14.8 | 0.00 | 0.00 | 0.00 | 60 | 1006.6 |
| 20260505204523 | 85 | 180 | 7.8 | 13.0 | 0.00 | 0.00 | 0.00 | 60 | 1007.0 |
| 20260505203018 | 85 | 173 | 9.6 | 13.9 | 0.00 | 0.00 | 0.00 | 60 | 1007.1 |
| 20260505201517 | 84 | 194 | 7.0 | 13.0 | 0.00 | 0.00 | 0.00 | 61 | 1007.3 |
| 20260505200011 | 84 | 186 | 8.7 | 12.2 | 0.00 | 0.00 | 0.00 | 62 | 1007.6 |
| 20260505194518 | 83 | 194 | 7.8 | 12.2 | 0.00 | 0.00 | 0.00 | 63 | 1007.8 |
| 20260505193006 | 83 | 159 | 6.1 | 9.6 | 0.00 | 0.00 | 0.00 | 64 | 1008.2 |
| 20260505191503 | 81 | 172 | 4.3 | 8.7 | 0.00 | 0.00 | 0.00 | 65 | 1008.3 |
| 20260505190100 | 81 | 136 | 6.1 | 8.7 | 0.00 | 0.00 | 0.00 | 65 | 1008.6 |